Theta_e
309 309 309 308 309 308 308 308 307 307 307 307 307 306 306 305 305 305 305 306 305 305 304 303 303 303 302 300 299 296 296 295 296 297 297 298 297 298 297 297 297 297 298 297 297 297 297
309 308 308 308 308 308 307 307 307 307 307 307 306 306 305 305 305 305 305 305 304 303 303 303 303 303 301 298 297 297 294 295 295 296 296 297 297 297 297 297 297 297 297 296 297 298 299
308 308 307 307 307 307 306 306 306 306 307 306 306 305 305 305 305 305 304 304 302 301 302 302 303 302 301 300 298 296 295 295 295 296 296 296 296 297 297 297 297 297 297 297 297 297 297
307 307 307 308 307 307 307 306 306 306 306 306 306 305 304 305 304 304 299 301 300 300 299 300 303 302 300 299 299 297 295 294 295 295 295 295 296 297 297 298 297 297 297 298 297 296 296
307 307 308 308 309 308 307 307 307 306 306 305 305 304 304 304 303 301 296 298 296 296 298 302 301 300 297 295 295 294 294 295 295 295 295 295 297 297 298 298 298 297 298 297 296 296 296
306 307 307 306 307 307 308 307 307 306 306 305 304 304 302 303 302 299 295 295 295 296 299 296 296 298 296 295 295 294 294 294 295 295 296 296 298 299 298 298 299 296 296 295 295 296 296
306 306 306 306 306 306 307 307 307 307 306 305 304 298 301 302 300 296 295 296 297 297 297 297 296 296 295 295 294 294 294 294 295 295 296 296 297 298 297 297 297 295 295 294 294 295 295
306 306 305 305 306 306 306 306 306 306 306 305 303 295 301 299 295 294 295 296 295 295 297 296 295 296 295 294 294 295 293 294 294 296 296 296 298 296 295 296 296 296 297 297 295 295 295
306 306 305 305 305 305 305 306 307 306 306 304 302 295 294 294 295 294 295 293 293 294 298 294 294 295 294 294 294 294 294 294 295 295 295 296 296 295 296 297 297 296 297 296 295 295 295
305 305 305 305 305 305 305 305 306 306 304 304 300 295 295 294 295 294 294 293 295 295 296 293 294 294 294 294 293 293 293 294 294 295 295 295 295 295 295 298 297 299 296 296 296 296 297
304 304 305 305 305 305 305 305 306 305 304 304 302 295 294 293 294 294 291 295 295 295 301 293 294 293 294 293 292 293 293 293 294 294 294 295 294 295 297 299 299 298 297 297 297 297 298
304 304 304 304 304 304 305 305 305 305 304 304 299 295 294 293 292 291 294 295 294 296 299 293 294 294 294 293 292 292 293 293 293 293 294 294 294 297 297 299 298 298 300 299 299 300 302
303 303 303 304 304 305 305 305 304 304 305 303 296 296 294 293 293 291 294 293 297 298 293 294 294 294 294 292 292 292 293 293 294 294 294 294 294 297 297 297 297 298 300 302 302 303 300
303 303 303 303 304 305 305 305 305 304 304 302 297 296 295 293 292 292 292 295 299 293 294 294 294 294 292 292 291 292 292 294 293 293 294 294 296 295 296 295 295 294 299 303 300 301 299
303 303 303 303 304 304 305 305 305 305 304 302 297 296 296 295 293 291 295 298 294 293 294 294 294 292 292 291 292 292 292 293 293 293 293 294 294 294 294 293 291 293 302 295 303 299 300
302 302 303 302 303 303 304 305 306 305 304 302 296 294 296 296 294 294 297 294 294 293 293 294 294 292 293 292 292 292 292 292 293 293 292 294 294 294 293 291 290 289 290 299 304 303 299
303 302 302 302 301 303 304 305 305 305 304 302 295 298 296 296 295 296 296 294 293 293 293 294 293 293 293 292 292 291 292 292 292 292 292 294 294 294 293 290 289 288 287 287 289 299 304
301 302 302 302 300 302 304 305 305 305 304 301 295 302 295 296 299 295 296 293 293 293 293 293 293 293 293 293 292 291 292 292 291 291 293 293 293 294 293 289 288 286 285 285 290 297 298
301 301 301 301 301 301 303 304 305 305 303 299 298 297 295 295 300 299 295 292 293 293 293 293 293 293 293 293 292 291 291 291 291 291 294 292 293 292 293 291 288 286 285 284 286 286 290
301 301 301 301 300 301 303 304 304 304 303 300 300 304 299 294 293 295 294 293 293 293 292 293 293 293 293 292 291 291 291 291 291 291 293 290 292 291 291 292 287 285 284 283 287 289 287
302 301 301 300 300 301 303 304 304 304 304 300 300 301 296 303 299 295 292 292 293 294 292 292 292 293 292 291 291 290 290 291 290 290 289 287 290 289 290 288 285 284 283 281 282 283 285
301 301 300 300 300 301 303 304 304 304 304 300 303 301 292 298 294 294 293 294 294 294 293 292 292 292 292 292 291 292 291 291 290 291 290 285 289 287 288 288 288 285 282 282 280 279 280
300 300 300 300 300 301 302 304 304 304 304 301 296 295 297 299 296 295 297 295 295 294 293 292 292 292 292 292 292 292 291 291 291 290 290 286 286 288 291 286 288 289 280 280 279 277 278
300 299 299 299 300 301 303 304 304 304 303 302 300 296 296 300 297 299 298 296 295 294 293 292 292 292 292 290 291 289 288 287 285 288 288 287 285 287 290 286 289 282 280 280 278 277 277
300 301 300 301 302 303 303 303 304 304 303 301 301 297 296 299 298 299 296 296 295 293 291 290 291 291 290 291 290 290 288 287 288 287 283 280 285 288 288 288 282 282 279 278 278 278 276
300 301 301 302 302 303 304 304 304 304 303 301 300 299 295 298 300 296 296 294 294 292 291 290 290 289 290 290 289 289 289 288 288 287 284 283 282 288 285 287 287 281 277 276 276 281 276
300 301 301 302 303 304 304 304 304 304 302 301 300 299 297 297 297 293 296 296 291 291 291 291 291 291 288 290 290 289 289 287 288 287 286 286 285 286 287 287 283 276 276 276 281 280 275
300 301 302 303 303 304 304 304 303 303 302 299 298 299 297 296 297 292 293 292 292 292 292 291 291 289 290 290 289 289 289 287 286 282 283 285 286 286 280 284 284 275 276 279 275 274 274
300 301 302 303 303 304 304 304 304 303 301 299 298 297 298 295 296 291 290 290 291 292 292 292 291 290 292 291 288 287 289 284 286 287 277 283 278 281 279 279 275 274 274 274 273 274 274
Wind_Speed
21 21 21 21 21 22 22 22 23 24 26 27 27 27 27 26 23 21 19 18 16 15 14 12 7 3 0 2 3 3 6 10 12 8 12 13 13 14 18 13 15 18 18 21 18 18 19
22 22 22 21 22 23 24 23 23 24 26 27 27 27 27 25 22 21 20 18 16 13 14 6 2 5 2 5 1 2 12 17 16 15 17 15 14 16 21 19 19 16 20 21 21 22 20
21 21 22 23 23 24 25 25 25 26 27 28 28 27 26 23 22 21 20 18 16 16 4 2 5 4 2 5 2 6 13 18 10 11 11 15 17 15 11 17 19 20 23 21 21 20 19
21 22 22 23 24 24 26 26 27 29 30 30 29 28 23 21 21 21 20 19 17 4 3 3 8 4 4 5 7 11 21 19 10 13 15 19 18 16 18 15 20 19 21 20 22 18 20
21 22 24 24 25 25 26 28 29 31 33 33 31 27 22 20 21 18 22 20 7 5 7 11 5 3 4 4 6 23 17 9 18 19 15 14 6 10 11 14 16 18 21 24 28 21 21
21 23 23 24 26 26 27 27 30 33 35 36 32 25 22 21 21 13 22 8 9 11 9 6 5 4 0 10 15 23 7 12 13 12 10 2 5 8 11 12 17 20 20 22 22 19 15
23 23 24 24 26 27 28 29 30 32 35 36 31 23 24 21 17 10 16 3 2 2 7 3 3 4 7 16 21 7 8 20 5 10 9 6 7 12 16 18 23 23 25 26 24 23 20
23 23 24 25 25 27 28 29 31 33 35 35 28 26 24 21 8 15 8 5 2 3 1 0 4 5 6 12 8 11 17 12 12 13 9 7 13 10 9 12 15 20 23 25 23 22 17
24 24 23 24 25 27 28 29 31 32 35 35 26 27 23 18 2 14 7 5 5 8 1 2 1 3 8 17 7 12 13 18 12 11 14 12 12 11 10 13 13 16 20 21 23 16 18
22 23 24 25 25 26 29 30 32 33 36 38 23 23 23 13 2 11 2 14 5 8 2 10 4 3 10 16 1 17 19 6 7 12 14 7 3 14 17 16 14 18 17 20 20 12 11
22 23 24 25 26 26 29 31 32 35 38 38 25 19 22 12 4 3 10 3 8 3 1 12 4 4 16 8 12 4 22 8 11 17 6 8 20 14 13 6 9 12 12 14 15 15 15
22 22 23 25 26 27 30 32 34 37 40 40 26 16 22 9 5 8 1 6 2 2 4 4 6 13 17 10 11 8 7 7 8 13 8 16 8 3 9 11 19 17 11 11 10 9 9
22 22 23 24 27 28 31 33 35 38 40 44 17 10 21 15 10 12 6 3 2 4 5 7 8 13 15 13 8 12 11 12 12 12 20 18 4 5 6 17 9 11 7 3 6 7 8
22 22 22 23 25 26 29 33 37 39 41 43 13 7 17 17 21 2 3 3 8 2 5 7 8 14 5 12 9 14 11 10 8 13 15 11 6 10 9 8 11 18 6 5 3 4 5
22 22 23 23 24 25 28 31 34 37 41 40 11 5 11 31 22 4 2 6 2 3 5 9 11 5 4 6 9 9 8 4 4 10 9 7 6 12 6 5 8 10 5 9 7 3 5
22 22 22 23 24 24 27 30 31 34 38 37 6 3 11 29 17 5 5 3 2 2 6 4 4 3 6 11 11 12 6 1 7 12 10 5 10 4 8 4 5 4 8 1 5 3 4
21 21 21 22 23 22 25 29 29 31 35 30 5 1 14 22 9 6 4 1 3 4 4 3 3 5 6 7 13 6 6 9 2 14 11 9 4 12 7 7 12 8 6 5 5 5 4
21 20 20 20 21 19 24 28 29 30 34 23 4 0 14 16 6 3 3 4 4 4 2 4 4 6 5 9 8 5 5 5 12 15 10 2 5 12 9 3 5 11 11 5 3 5 4
20 20 19 19 20 17 20 24 25 25 28 10 2 3 7 6 5 6 3 3 4 3 4 2 4 5 3 6 7 8 6 7 9 12 8 9 1 9 2 5 3 6 17 13 8 3 5
19 20 19 18 19 18 17 21 22 22 23 10 2 4 2 3 2 1 4 3 3 3 5 5 7 5 5 9 6 7 8 7 17 8 11 3 3 3 9 7 3 7 15 17 4 3 4
19 20 17 16 16 16 15 19 20 20 19 6 3 1 1 5 2 1 2 2 3 4 3 3 4 8 3 5 11 6 6 13 11 2 4 3 4 9 11 6 5 10 12 14 15 11 5
19 19 17 16 16 15 13 17 18 18 17 1 1 1 1 3 2 3 2 4 3 4 4 5 7 6 7 9 11 18 15 14 9 5 4 3 4 4 2 5 7 2 15 9 9 11 7
20 19 16 16 16 12 13 15 16 15 12 1 2 2 1 3 2 2 2 3 5 6 6 12 10 12 15 16 12 16 17 16 14 8 4 2 4 4 3 6 4 8 9 8 5 9 6
20 17 16 16 15 13 14 15 14 13 7 3 5 4 2 4 4 6 4 6 11 8 12 11 12 12 5 7 16 7 4 4 5 8 6 4 3 2 3 2 3 3 4 3 5 6 9
18 18 16 14 13 14 15 15 15 13 7 6 5 5 2 4 6 9 4 9 9 9 8 8 9 7 5 10 5 5 3 3 3 5 5 2 3 2 3 3 1 2 3 4 2 1 10
20 19 18 14 16 17 17 17 16 13 10 7 9 10 3 2 5 2 7 5 4 4 5 5 5 4 2 2 2 3 4 3 2 2 4 3 1 2 1 4 3 3 4 3 2 3 11
21 21 21 17 18 19 19 18 17 14 11 9 8 15 4 3 3 5 5 3 4 3 5 7 2 3 1 2 3 4 4 2 4 2 2 3 1 3 3 4 2 4 5 2 3 4 11
23 23 23 23 22 21 21 19 18 14 14 9 9 13 11 3 4 8 6 5 4 4 5 2 4 2 2 3 2 2 3 1 3 1 2 3 2 3 1 4 5 9 3 2 4 4 9
26 24 24 25 24 23 24 22 19 15 13 8 6 12 21 2 2 4 6 6 8 9 5 3 3 1 2 3 3 2 4 3 3 6 2 3 3 1 1 3 2 4 7 2 3 6 9
Wind_Direction
25 19 18 14 11 7 5 3 359 356 354 351 347 343 340 339 339 338 337 336 334 331 326 315 305 264 263 276 261 354 11 343 327 309 291 288 283 277 276 271 277 260 265 274 281 293 290
25 23 20 18 15 11 7 5 1 357 354 350 348 344 341 339 340 338 337 338 335 332 324 315 258 181 178 307 285 341 346 334 313 295 283 270 265 276 277 274 259 265 278 279 282 283 281
25 24 24 21 17 12 10 8 4 359 354 350 347 345 341 341 340 339 337 336 335 328 337 314 173 160 223 285 279 290 322 323 303 291 288 278 268 265 261 263 255 258 271 276 271 280 276
24 23 16 13 13 11 9 8 5 1 356 351 347 345 343 342 343 341 342 334 328 354 350 147 164 173 273 290 290 296 311 312 289 290 276 280 271 260 254 253 262 257 261 270 274 274 279
17 12 11 10 7 5 6 4 2 0 358 353 349 346 345 344 344 345 347 339 14 61 79 134 135 204 288 315 309 321 315 302 305 291 289 271 239 244 236 241 257 251 259 265 275 271 283
15 13 11 8 5 4 3 2 1 359 356 355 349 348 348 345 342 346 351 23 81 89 100 116 94 230 111 324 321 316 306 305 299 302 301 243 239 252 245 246 249 259 257 262 269 269 275
13 11 7 5 4 2 1 1 359 356 355 355 350 355 350 349 350 352 4 45 51 122 48 34 337 288 319 322 323 310 331 320 282 289 299 323 268 264 274 263 259 268 273 272 266 272 272
13 11 9 7 4 2 1 360 0 358 355 355 353 355 350 351 28 4 42 71 33 312 137 124 290 278 300 327 305 342 342 335 322 313 321 286 276 291 290 279 272 262 262 263 271 271 274
9 8 7 4 3 0 1 359 358 357 357 357 357 1 1 352 77 10 77 55 314 170 211 93 235 302 338 328 331 330 352 321 307 303 330 298 282 305 310 289 261 248 252 266 267 292 281
4 5 3 4 1 358 360 359 358 356 358 356 354 357 358 1 26 349 73 338 146 179 168 4 351 57 346 320 224 332 347 325 315 314 330 297 282 301 302 283 272 262 258 256 259 259 255
0 1 2 1 358 354 355 357 357 356 358 355 350 359 2 26 330 16 317 107 147 221 302 342 339 320 345 20 312 345 344 322 308 314 286 304 311 314 305 271 276 260 283 257 255 243 255
357 357 357 359 357 357 354 352 354 356 357 353 350 355 5 6 9 341 85 143 188 232 348 351 336 342 345 336 338 308 336 350 287 307 282 319 307 272 325 299 287 272 271 240 252 234 237
353 353 354 355 356 356 355 353 355 357 357 356 358 5 9 16 333 329 156 197 239 43 8 332 332 334 331 327 329 349 340 359 18 348 340 326 338 335 356 322 344 360 239 252 182 203 245
348 349 352 354 353 354 356 354 353 356 355 356 353 2 13 8 355 26 169 243 53 25 294 326 318 323 319 356 334 334 337 359 28 355 320 341 317 12 5 2 314 296 248 267 257 229 271
344 346 349 351 353 354 354 353 353 353 353 354 2 359 6 358 359 24 281 49 25 324 312 318 320 320 332 337 337 337 343 305 331 3 354 322 290 334 70 13 2 330 315 339 285 247 258
341 344 347 348 349 356 355 350 349 352 352 352 3 1 9 353 360 30 58 99 247 259 317 311 311 344 318 333 341 343 320 24 334 348 356 304 293 312 12 19 1 38 338 337 234 275 246
338 340 344 346 347 357 353 352 351 353 352 353 17 24 353 355 20 43 58 6 278 276 286 269 292 292 275 315 325 311 291 299 23 343 332 293 284 308 330 27 15 15 19 347 284 277 300
335 338 339 342 343 349 351 352 353 355 354 358 4 79 354 7 38 50 21 315 312 284 260 283 275 266 271 317 302 284 276 293 342 341 331 3 290 307 334 123 86 73 4 344 297 8 347
337 337 335 337 338 342 350 352 353 357 357 349 17 298 4 3 38 17 328 263 249 280 271 274 266 245 322 300 303 264 275 290 338 338 340 336 332 321 323 181 120 22 5 343 254 254 32
332 333 332 334 335 337 345 349 353 358 356 3 359 346 42 63 77 70 336 239 287 255 267 244 271 266 278 284 237 273 289 307 327 315 337 319 276 307 299 326 353 356 5 6 349 43 4
328 329 326 327 329 330 342 347 350 353 357 4 13 19 34 321 359 300 243 273 289 313 237 254 248 234 276 290 300 248 257 307 306 322 19 22 276 320 300 161 102 39 15 18 34 18 41
326 324 322 323 323 329 338 346 346 348 351 39 298 273 177 280 249 280 176 221 272 277 234 252 235 279 260 271 259 291 300 307 284 312 352 0 302 333 284 226 239 36 25 8 24 13 34
317 318 317 316 317 323 329 338 338 344 345 66 180 173 222 207 200 233 224 253 270 305 264 241 261 285 282 280 280 286 281 273 260 270 298 318 323 324 327 340 225 238 9 12 62 34 339
314 313 311 312 315 318 322 326 327 329 318 269 214 157 198 268 219 261 258 264 279 277 263 274 276 267 260 317 298 266 232 232 228 233 235 288 299 290 300 281 272 65 30 24 105 38 15
308 312 307 308 313 314 313 313 316 315 279 286 236 171 209 263 251 278 246 263 266 273 273 264 264 241 320 311 290 302 226 218 187 169 176 191 268 290 298 305 34 156 25 340 343 48 5
300 303 302 303 304 307 306 307 306 302 274 266 246 218 171 271 226 265 283 228 270 264 276 249 261 272 251 259 265 269 302 337 275 193 178 168 97 244 241 294 286 82 353 331 206 228 7
289 295 296 292 296 300 301 299 298 286 267 251 252 230 184 225 236 157 220 253 176 224 263 283 274 288 186 242 254 248 276 215 264 256 205 252 323 275 260 268 109 9 320 159 241 13 340
283 289 293 292 290 294 293 288 290 267 255 249 264 246 214 227 253 193 187 180 201 204 257 302 289 188 237 237 243 262 248 215 239 116 231 275 252 230 172 249 246 3 158 270 3 335 332
278 283 289 293 292 295 295 289 285 255 254 256 260 254 240 218 315 196 207 225 230 256 248 214 264 286 273 243 224 272 259 200 235 268 153 221 295 337 302 18 86 51 88 57 283 320 333